Weather History for Sitka, AK

Change the Weather History Date:

Thursday, February 16, 2012

  Actual Average Record
Temperature  
Mean Temperature 36 °F -  
Max Temperature 39 °F 39 °F 51 °F (1959)
Min Temperature 34 °F 30 °F 11 °F (1954)
Degree Days  
Heating Degree Days 28    
Moisture  
Dew Point 35 °F    
Average Humidity 94    
Maximum Humidity 100    
Minimum Humidity 79    
Precipitation  
Precipitation 0.18 in - - ()
Sea Level Pressure  
Sea Level Pressure 29.96 in    
Wind  
Wind Speed 5 mph (East)    
Max Wind Speed 8 mph    
Max Gust Speed -    
Visibility 9 miles    
Events Rain    
Averages and records for this station are not official NWS values.
T = Trace of Precipitation, MM = Missing Value Source: NWS Daily Summary

Daily Weather History Graph

Daily Weather History Graph

Search for Another Location

Airport:

Trip Planner

Search our weather history database for the weather conditions in past years. The results will help you decide how hot, cold, wet, or windy it might be!

Date:

Astronomy

Feb. 16, 2012 Rise Set
Actual Time 7:28 AM AKST 5:03 PM AKST
Civil Twilight 6:48 AM AKST 5:43 PM AKST
Nautical Twilight 6:03 AM AKST 6:28 PM AKST
Astronomical Twilight 5:19 AM AKST 7:12 PM AKST
Moon 4:16 AM AKST (2/16) 11:18 AM AKST (2/16)
Length of Visible Light 10h 55m
Length of Day
9h 35m
Waning Crescent, 27% of the Moon is Illuminated
Feb 16
Waning Crescent
Feb 21
New
Feb 29
First Quarter
Mar 8
Full
Mar 14
Last Quarter

Hourly Weather History & Observations

Time (AKST) Temp. Windchill Dew Point Humidity Pressure Visibility Wind Dir Wind Speed Gust Speed Precip Events Conditions
12:07 AM 37.4 °F 32.8 °F 35.6 °F 93% 29.89 in 2.0 mi ESE 5.8 mph - 0.03 in Rain Rain
12:14 AM 37.4 °F 31.4 °F 35.6 °F 93% 29.89 in 2.5 mi ESE 8.1 mph - 0.03 in Rain Light Rain
12:35 AM 37.4 °F 31.4 °F 35.6 °F 93% 29.90 in 6.0 mi East 8.1 mph - 0.05 in Rain Light Rain
12:53 AM 37.4 °F 32.1 °F 35.6 °F 93% 29.91 in 9.0 mi East 6.9 mph - N/A   Overcast
1:08 AM 37.4 °F 32.8 °F 35.6 °F 93% 29.91 in 10.0 mi East 5.8 mph - N/A   Overcast
1:34 AM 37.4 °F 34.9 °F 37.4 °F 100% 29.93 in 10.0 mi ESE 3.5 mph - N/A   Overcast
1:53 AM 37.0 °F 32.4 °F 37.0 °F 100% 29.94 in 10.0 mi East 5.8 mph - N/A   Overcast
2:29 AM 37.4 °F 33.8 °F 35.6 °F 93% 29.96 in 5.0 mi ENE 4.6 mph - 0.01 in Rain Light Rain
2:36 AM 37.4 °F 32.8 °F 35.6 °F 93% 29.96 in 6.0 mi East 5.8 mph - 0.01 in Rain Light Rain
2:44 AM 37.4 °F 32.8 °F 35.6 °F 93% 29.96 in 9.0 mi East 5.8 mph - 0.02 in Rain Light Rain
3:53 AM 37.0 °F 32.4 °F 36.0 °F 96% 29.97 in 8.0 mi SE 5.8 mph - 0.01 in Rain Light Rain
4:15 AM 35.6 °F 31.7 °F 35.6 °F 100% 29.97 in 10.0 mi East 4.6 mph - 0.00 in   Overcast
4:36 AM 35.6 °F 30.7 °F 35.6 °F 100% 29.96 in 10.0 mi East 5.8 mph - 0.00 in   Overcast
4:53 AM 35.1 °F 30.1 °F 35.1 °F 100% 29.96 in 10.0 mi East 5.8 mph - 0.00 in   Mostly Cloudy
5:53 AM 36.0 °F 31.1 °F 36.0 °F 100% 29.98 in 10.0 mi East 5.8 mph - N/A   Overcast
6:39 AM 35.6 °F 31.7 °F 33.8 °F 93% 29.99 in 10.0 mi ESE 4.6 mph - N/A   Scattered Clouds
6:53 AM 35.1 °F 32.2 °F 35.1 °F 100% 30.00 in 8.0 mi ESE 3.5 mph - N/A   Mostly Cloudy
7:53 AM 34.0 °F 29.8 °F 34.0 °F 100% 30.01 in 9.0 mi East 4.6 mph - N/A   Overcast
8:49 AM 35.6 °F 29.9 °F 35.6 °F 100% 30.02 in 10.0 mi East 6.9 mph - N/A   Mostly Cloudy
8:53 AM 35.1 °F 29.3 °F 34.0 °F 96% 30.02 in 10.0 mi East 6.9 mph - N/A   Mostly Cloudy
9:53 AM 35.1 °F 30.1 °F 34.0 °F 96% 30.02 in 10.0 mi SE 5.8 mph - N/A   Overcast
10:53 AM 37.0 °F - 35.1 °F 93% 30.03 in 10.0 mi Calm Calm - N/A   Overcast
11:53 AM 37.0 °F - 34.0 °F 89% 30.05 in 10.0 mi Calm Calm - N/A   Overcast
12:53 PM 39.9 °F - 35.1 °F 83% 30.05 in 10.0 mi Calm Calm - N/A   Overcast
1:53 PM 39.0 °F 34.8 °F 35.1 °F 86% 30.03 in 10.0 mi ESE 5.8 mph - N/A   Mostly Cloudy
2:53 PM 39.0 °F 34.8 °F 33.1 °F 79% 30.01 in 10.0 mi ESE 5.8 mph - N/A   Overcast
3:53 PM 39.0 °F 36.8 °F 35.1 °F 86% 29.99 in 10.0 mi South 3.5 mph - N/A   Overcast
4:53 PM 39.0 °F - 35.1 °F 86% 29.98 in 10.0 mi Calm Calm - N/A   Overcast
5:53 PM 37.0 °F 34.5 °F 35.1 °F 93% 29.95 in 10.0 mi NNW 3.5 mph - N/A   Overcast
6:53 PM 37.9 °F 35.5 °F 36.0 °F 93% 29.95 in 10.0 mi North 3.5 mph - N/A   Overcast
7:53 PM 37.0 °F 34.5 °F 35.1 °F 93% 29.93 in 10.0 mi Variable 3.5 mph - N/A   Overcast
8:53 PM 37.0 °F 33.3 °F 35.1 °F 93% 29.93 in 10.0 mi West 4.6 mph - 0.00 in Rain Light Rain
9:13 PM 37.4 °F - 35.6 °F 93% 29.93 in 8.0 mi Calm Calm - 0.01 in Rain Light Rain
9:21 PM 37.4 °F - 35.6 °F 93% 29.93 in 7.0 mi Calm Calm - 0.02 in Rain Light Rain
9:53 PM 36.0 °F 33.3 °F 35.1 °F 97% 29.93 in 6.0 mi East 3.5 mph - 0.06 in Rain Rain
10:53 PM 35.1 °F 32.2 °F 34.0 °F 96% 29.91 in 10.0 mi East 3.5 mph - 0.06 in Rain Light Rain
11:19 PM 35.6 °F - 33.8 °F 93% 29.90 in 10.0 mi Calm Calm - 0.01 in Rain Light Rain
11:53 PM 35.1 °F 32.2 °F 34.0 °F 96% 29.90 in 7.0 mi East 3.5 mph - 0.05 in Rain Rain